KAITUO 1B
1 40912U 15049P   18001.23764066  .00001268  00000-0  64966-4 0  9991
2 40912  97.4516  10.9793 0014062 228.1165 191.2204 15.18339771126336
TIANWANG 1C (TW-1C)
1 40926U 15051B   18001.46411470  .00007494  00000-0  15280-3 0  9993
2 40926  97.2072  44.6920 0011133 157.5482 313.3768 15.46442984127521
TIANWANG 1B (TW-1B)
1 40927U 15051C   18001.48441652  .00007676  00000-0  16282-3 0  9996
2 40927  97.2156  44.6339 0010832 169.2348 296.4985 15.45277150127459
TIANWANG 1A (TW-1A)
1 40928U 15051D   18001.47888932  .00003217  00000-0  88889-4 0  9992
2 40928  97.2060  38.6812 0011420 195.6478 272.8378 15.37708664127155
LAPAN A2
1 40931U 15052B   18001.08714531  .00000651  00000-0  16823-5 0  9996
2 40931   5.9979 261.6532 0012143 164.9788 195.0998 14.76560482122264
LQSAT
1 40958U 15057A   18001.40055364  .00000035  00000-0  13151-4 0  9994
2 40958  97.9595  78.0577 0018805 147.4250 212.8118 14.73009898120297
CHUBUSAT 2
1 41338U 16012B   18001.21375399 +.00000366 +00000-0 +21919-4 0  9999
2 41338 031.0038 294.4399 0014013 220.0673 139.8929 14.99898456102743
CHUBUSAT 3
1 41339U 16012C   18001.18214306  .00000377  00000-0  22639-4 0  9998
2 41339  31.0098 293.4790 0013858 226.7741 133.1738 15.00091802102725
OUFTI-1
1 41458U 16025C   18001.09007715  .00002070  00000-0  11258-3 0  9994
2 41458  98.1594  54.8618 0171142 348.0814  11.6403 15.04111157 92312
E-STAR-2
1 41459U 16025D   18001.20256676  .00001765  00000-0  97153-4 0  9999
2 41459  98.1631  54.8837 0171792 348.4490  11.2815 15.03889385 92321
AAUSAT 4
1 41460U 16025E   18001.19543283 +.00002419 +00000-0 +13057-3 0  9999
2 41460 098.1556 055.1461 0163447 345.6665 013.9963 15.05116516092365
NUSAT 1
1 41557U 16033B   18001.25142236 +.00001452 +00000-0 +55976-4 0  9998
2 41557 097.4496 085.7135 0014739 033.8075 326.4101 15.27878608088669
BEESAT 4
1 41619U 16040W   18001.12772390 +.00001643 +00000-0 +75722-4 0  9994
2 41619 097.4386 066.4313 0013411 095.7817 264.4949 15.21624001072683
PRATHAM
1 41783U 16059A   18001.17834476 +.00000089 +00000-0 +26739-4 0  9992
2 41783 098.1423 065.2318 0032365 259.3527 100.4030 14.62891489067541
ALSAT 1N
1 41789U 16059G   18001.48076855  .00000099  00000-0  28037-4 0  9995
2 41789  98.1431  66.4199 0026887 251.5996 108.2287 14.64115747 67629
NAYIF 1
1 42017U 17008BX  18001.20977921 +.00001795 +00000-0 +77315-4 0  9996
2 42017 097.4714 067.1160 0005128 239.4325 120.6406 15.23904251048635
LILACSAT-1
1 42725U 98067ME  18001.19567159 +.00018779 +00000-0 +21341-3 0  9999
2 42725 051.6376 125.0343 0005059 324.3930 035.6726 15.62349345034379
MAX VALIER SAT
1 42778U 17036P   18001.22337921 +.00001137 +00000-0 +54453-4 0  9991
2 42778 097.4275 063.5274 0011256 297.4731 062.5360 15.20950099029125
